Wind_Speed
11 14 16 17 19 21 23 24 24 20 20 18 17 16 15 16 19 22 29 35 41 42 42 41 40 41 42 42 41 40 39 38 37 37 37 37 37 37 37 38 39 41 43 46
8 10 11 13 16 17 17 17 17 16 14 12 9 6 4 7 12 17 24 31 35 37 37 37 37 38 39 39 38 37 36 36 35 35 35 36 36 36 37 38 40 42 45 48
4 6 8 11 13 13 14 14 12 11 9 7 5 4 6 8 11 17 23 28 31 32 33 34 34 34 35 35 34 34 33 33 33 33 34 34 34 35 37 39 41 44 47 50
1 3 8 10 12 11 11 10 9 8 8 7 9 9 10 12 15 18 21 24 26 27 28 29 29 30 30 30 30 30 30 30 31 31 31 32 33 35 37 40 43 46 49 51
2 5 7 8 9 8 9 9 8 8 9 10 11 11 13 15 16 18 20 21 22 23 23 24 25 25 25 26 26 26 27 27 27 28 29 31 33 36 38 41 44 47 50 52
2 4 6 7 7 6 7 8 9 8 8 10 11 12 15 15 16 17 17 18 19 19 20 20 21 21 22 22 23 23 23 24 25 27 29 31 34 37 40 43 45 48 50 53
0 2 4 6 5 5 6 7 7 8 9 9 10 11 12 13 13 14 14 14 14 15 16 16 17 18 18 19 19 20 21 22 24 27 29 32 35 38 41 43 46 48 51 53
2 0 2 3 4 4 5 5 5 5 6 7 8 8 10 10 11 11 11 12 12 12 12 13 13 14 14 15 17 18 20 23 25 28 31 34 36 39 41 44 46 49 51 53
4 2 1 1 1 2 2 2 2 3 4 3 4 5 6 7 7 8 8 9 9 9 9 9 10 11 13 14 16 19 21 24 26 29 31 34 36 39 42 44 47 48 50 52
5 4 3 2 2 1 1 1 1 1 1 1 2 3 4 4 5 5 5 5 6 6 7 8 9 11 13 15 17 19 22 24 27 29 32 35 37 40 42 44 46 48 50 54
7 6 5 4 4 3 3 2 2 2 2 1 1 2 2 3 3 4 4 4 5 6 7 8 10 11 13 16 18 21 23 25 28 30 33 36 38 41 42 44 46 49 53 57
8 7 6 6 5 5 4 4 4 3 3 2 2 2 2 2 3 3 4 5 5 6 7 9 10 13 15 17 20 22 24 27 29 32 34 37 39 40 42 45 48 52 57 63
9 8 8 7 7 7 6 6 5 4 4 4 3 3 3 3 3 3 4 5 6 7 9 11 13 15 17 19 21 23 26 28 30 33 35 36 38 41 44 48 53 58 63 68
11 10 10 9 9 8 7 6 5 5 5 5 4 4 4 4 4 5 5 7 8 10 11 13 15 17 19 21 23 25 27 29 31 33 35 37 39 42 46 51 56 62 68 73
12 11 10 10 9 9 8 7 7 6 6 6 5 5 5 5 5 6 7 9 11 12 13 15 17 19 21 22 24 26 28 30 31 33 35 38 41 46 50 55 61 66 71 74
12 12 11 11 11 11 10 9 8 8 8 7 6 6 5 5 6 8 10 11 13 14 16 17 19 20 22 24 26 27 29 30 32 34 37 41 45 50 55 61 66 70 73 74
12 12 12 11 11 11 11 10 9 9 9 8 7 7 8 8 10 11 12 14 15 17 18 19 20 22 24 25 27 28 29 31 33 37 41 45 50 55 60 65 69 71 72 72
12 12 12 12 12 12 12 11 10 10 10 10 10 10 10 11 12 13 15 16 17 18 19 20 22 23 24 25 27 28 30 32 36 40 45 49 54 59 64 68 69 70 69 66
12 12 12 12 12 12 13 12 12 12 11 11 12 12 13 14 15 16 17 18 19 20 21 22 23 23 24 26 27 29 32 36 40 44 49 53 58 63 67 68 68 68 64 55
13 13 13 13 14 14 14 14 14 14 14 14 14 14 15 16 17 18 19 19 20 20 21 22 23 24 25 26 28 31 35 39 43 48 52 57 62 66 67 67 67 63 53 41
15 15 16 16 16 16 15 16 16 16 16 16 16 17 17 18 19 19 20 20 20 20 21 22 23 24 26 28 31 35 39 43 47 52 56 61 65 67 67 65 61 53 41 29
16 17 17 18 18 18 18 18 18 18 18 18 18 18 19 19 19 20 20 20 20 21 22 23 24 25 28 31 34 38 42 46 51 55 60 64 66 66 64 60 52 40 29 18
17 18 18 19 19 19 20 19 19 19 19 19 19 20 20 20 20 20 20 20 21 21 22 23 25 27 30 33 38 41 45 50 54 58 63 65 66 64 59 51 40 28 18 10
19 19 19 20 20 20 20 21 21 21 20 20 20 20 20 20 20 20 20 21 21 22 23 24 26 29 33 37 41 45 49 53 57 62 65 65 64 58 50 40 28 17 9 4
21 21 20 20 21 21 21 21 21 21 21 20 20 20 20 20 20 21 21 21 21 22 24 26 29 32 36 40 44 48 52 56 60 64 64 63 58 50 40 28 17 9 4 2
24 24 23 23 23 22 22 21 21 21 21 21 21 21 21 21 21 21 21 21 22 23 25 28 31 35 39 42 46 51 54 59 63 64 63 59 51 40 28 17 8 3 2 2
27 26 25 25 24 23 23 22 22 22 22 22 22 21 22 21 21 21 21 22 23 25 27 30 34 37 41 45 49 53 57 61 63 62 59 52 41 28 18 9 3 1 1 1
Wind_Direction
282 289 300 309 312 309 306 307 309 313 307 302 292 285 269 248 230 217 207 201 198 198 199 202 205 209 214 218 222 227 233 239 245 252 257 262 267 271 274 277 281 284 288 290
288 302 318 326 323 320 317 315 317 322 323 321 310 300 268 206 197 192 190 187 186 188 192 196 201 207 212 217 222 228 235 241 248 254 259 264 268 271 275 279 283 287 290 292
295 321 342 347 342 335 330 327 326 335 345 359 21 78 116 139 152 159 166 170 174 180 187 193 199 205 211 217 223 230 237 244 250 255 260 265 269 273 278 283 286 290 292 295
6 12 15 7 3 1 355 355 2 16 29 45 63 85 105 120 131 142 152 160 168 176 184 192 199 205 211 218 225 232 239 246 252 257 262 266 272 277 282 286 289 292 294 297
57 38 29 17 13 21 26 26 30 42 52 67 79 90 103 115 127 136 144 153 163 173 181 190 198 206 214 221 228 235 241 247 253 259 265 271 277 282 286 289 292 295 297 299
67 46 36 27 23 34 50 48 51 62 65 76 87 99 108 116 123 131 140 150 160 172 182 192 200 208 215 222 230 237 244 251 259 266 272 278 282 286 289 292 295 298 299 301
122 50 39 33 37 59 70 67 72 71 80 88 92 105 114 121 129 137 144 153 162 172 182 191 200 209 218 227 236 245 253 261 268 274 278 283 286 290 293 295 297 299 301 303
225 256 35 33 43 63 69 71 79 88 93 97 98 106 119 127 134 143 153 161 169 178 187 197 207 218 229 239 249 257 264 271 276 280 284 288 291 293 296 298 300 301 303 305
228 234 267 346 13 38 70 78 72 69 85 99 118 123 123 126 135 145 156 167 177 188 199 212 225 236 246 255 263 269 275 279 283 286 289 292 295 296 298 300 302 304 306 308
231 237 246 255 270 280 289 293 303 344 47 101 141 144 143 153 161 171 182 191 200 211 223 234 245 254 262 269 274 278 282 286 289 292 294 296 298 300 301 303 305 307 309 310
237 240 244 247 248 251 253 255 263 267 268 258 207 188 185 182 189 202 216 229 235 241 249 256 262 268 274 279 284 287 290 292 294 296 297 299 301 302 304 306 308 310 311 312
242 242 241 239 242 243 244 247 246 247 242 237 228 212 212 222 233 234 238 242 247 255 263 271 278 283 287 291 293 295 296 297 298 300 301 302 304 306 307 309 311 312 313 314
240 238 237 238 243 244 244 247 242 236 236 229 228 220 222 228 241 251 251 256 267 276 283 288 292 295 297 298 299 299 300 301 302 303 304 306 308 310 311 313 314 315 315 316
236 238 241 243 245 240 236 236 238 234 233 235 233 229 237 253 264 268 273 281 287 293 296 298 300 301 302 302 302 302 303 304 305 306 308 310 311 312 314 314 315 316 317 318
236 241 242 241 239 236 234 236 240 238 239 236 233 239 256 267 277 286 291 296 300 303 304 304 304 304 304 304 305 306 306 307 309 310 312 313 314 315 315 316 317 318 319 320
236 240 240 240 237 233 234 240 243 246 243 234 242 255 264 277 288 296 300 304 305 306 306 306 306 306 306 307 308 309 309 311 312 314 314 315 316 317 317 318 319 320 321 322
232 231 232 233 232 229 231 234 238 239 233 236 251 263 273 284 292 299 303 306 307 308 308 308 307 307 308 309 310 312 313 314 315 316 316 317 318 319 320 321 322 322 323 324
226 227 227 227 228 226 225 230 233 233 239 250 262 271 279 287 294 298 302 305 307 308 308 308 309 309 310 312 313 314 315 316 317 318 319 320 321 321 322 323 324 324 325 326
225 226 226 227 227 226 229 233 234 240 249 258 267 275 283 289 294 298 301 303 306 307 308 308 310 311 313 314 315 316 317 318 319 320 321 322 323 324 325 325 325 326 326 327
232 231 231 231 232 233 236 239 244 250 257 264 271 279 286 290 294 297 300 302 305 306 308 309 311 312 314 316 317 318 319 320 321 322 323 325 325 326 327 326 326 327 328 328
237 237 237 237 239 240 244 249 253 258 264 270 276 281 286 290 294 297 300 302 304 306 308 309 311 313 315 317 318 319 321 322 324 325 326 327 327 328 328 327 328 328 329 330
241 240 241 243 245 248 252 255 259 264 268 273 277 281 286 290 293 296 298 301 303 306 307 310 312 314 317 318 320 321 323 324 326 327 328 329 329 329 328 328 329 329 330 331
242 243 245 247 249 252 255 258 262 265 269 273 277 281 285 288 291 294 297 300 303 305 307 310 312 315 318 319 321 323 325 327 328 329 330 330 330 329 329 329 330 330 331 334
245 245 247 249 251 254 256 259 262 266 269 273 277 280 283 286 289 292 296 299 302 304 307 310 313 316 319 321 323 325 327 329 330 331 331 331 330 330 330 330 330 331 335 345
246 247 249 250 252 254 258 261 264 266 269 272 275 278 281 284 288 292 296 299 301 304 307 311 314 317 320 323 325 327 329 330 331 332 332 331 331 331 331 331 333 337 350 36
248 248 249 251 252 254 257 260 262 265 267 270 274 277 281 284 288 291 294 297 300 303 307 312 315 319 322 324 327 329 330 331 332 332 332 332 332 332 332 332 336 350 42 85
248 248 249 250 252 254 256 258 261 263 267 270 273 277 281 284 286 289 292 295 299 304 308 313 317 320 323 326 328 330 331 332 333 333 333 333 332 332 332 332 333 29 93 91
Height
5606 5603 5600 5596 5592 5586 5579 5573 5566 5560 5553 5548 5542 5537 5535 5533 5533 5535 5541 5550 5561 5574 5587 5598 5608 5617 5625 5632 5638 5644 5649 5652 5655 5657 5657 5657 5657 5655 5654 5651 5649 5645 5642 5637
5602 5599 5596 5592 5587 5581 5576 5570 5564 5558 5552 5546 5541 5536 5534 5533 5533 5536 5543 5552 5563 5575 5586 5596 5606 5614 5621 5628 5634 5639 5643 5646 5649 5650 5650 5650 5649 5647 5645 5643 5640 5636 5632 5627
5599 5596 5594 5590 5585 5579 5574 5569 5564 5559 5554 5548 5544 5540 5538 5538 5539 5543 5549 5558 5567 5577 5587 5596 5604 5612 5619 5625 5630 5635 5638 5641 5642 5643 5643 5642 5641 5639 5637 5634 5630 5626 5622 5616
5597 5596 5592 5591 5584 5579 5575 5570 5566 5561 5557 5553 5550 5547 5546 5547 5549 5553 5558 5566 5573 5581 5589 5597 5604 5611 5617 5623 5627 5631 5633 5635 5636 5636 5636 5635 5633 5631 5628 5625 5621 5616 5611 5605
5595 5593 5591 5589 5585 5580 5576 5573 5569 5566 5563 5560 5557 5555 5555 5556 5558 5562 5567 5573 5579 5586 5592 5599 5605 5610 5616 5620 5624 5626 5628 5629 5629 5629 5628 5627 5625 5623 5619 5616 5611 5606 5600 5593
5594 5592 5591 5590 5586 5582 5580 5577 5574 5571 5569 5567 5566 5565 5565 5565 5567 5571 5574 5579 5584 5589 5594 5600 5605 5609 5613 5617 5619 5621 5622 5623 5623 5622 5621 5620 5617 5614 5610 5606 5601 5595 5589 5582
5592 5591 5591 5590 5587 5585 5584 5582 5578 5576 5574 5573 5572 5573 5573 5573 5575 5578 5581 5584 5588 5592 5596 5600 5604 5608 5611 5613 5615 5616 5617 5617 5617 5616 5614 5612 5609 5605 5601 5596 5591 5584 5577 5570
5592 5591 5593 5590 5588 5587 5585 5583 5581 5580 5579 5578 5578 5578 5578 5579 5581 5582 5585 5588 5591 5594 5597 5600 5603 5606 5608 5609 5611 5611 5611 5611 5610 5609 5607 5604 5600 5596 5591 5586 5580 5573 5565 5557
5592 5593 5591 5589 5588 5587 5586 5585 5584 5583 5583 5582 5582 5582 5583 5583 5585 5586 5588 5590 5593 5595 5597 5600 5602 5603 5605 5606 5606 5606 5606 5605 5604 5602 5599 5595 5591 5586 5581 5575 5569 5562 5554 5546
5589 5590 5590 5589 5588 5588 5587 5586 5586 5585 5585 5585 5585 5585 5585 5586 5587 5588 5590 5591 5593 5595 5597 5598 5600 5601 5602 5602 5602 5602 5601 5599 5597 5594 5590 5586 5582 5576 5571 5564 5558 5551 5543 5535
5587 5588 5588 5588 5588 5587 5587 5587 5586 5586 5586 5586 5586 5587 5587 5588 5589 5590 5591 5592 5593 5594 5596 5597 5597 5598 5598 5598 5597 5596 5594 5592 5589 5586 5582 5577 5572 5566 5560 5554 5547 5540 5532 5523
5585 5586 5586 5586 5586 5586 5586 5586 5586 5586 5586 5586 5587 5587 5588 5588 5589 5590 5591 5592 5592 5593 5594 5594 5595 5595 5594 5593 5592 5590 5587 5585 5581 5577 5573 5568 5563 5557 5550 5544 5536 5528 5519 5509
5582 5583 5584 5584 5584 5585 5585 5585 5585 5586 5586 5586 5586 5587 5588 5588 5589 5589 5590 5591 5591 5592 5592 5592 5591 5590 5589 5588 5586 5583 5580 5577 5573 5569 5564 5559 5553 5547 5540 5533 5524 5514 5504 5493
5579 5580 5581 5582 5582 5583 5583 5584 5584 5585 5585 5585 5586 5586 5587 5587 5588 5588 5589 5589 5589 5589 5588 5588 5587 5585 5584 5582 5579 5576 5573 5569 5565 5561 5556 5550 5545 5538 5531 5523 5513 5502 5490 5477
5576 5577 5578 5579 5580 5580 5581 5582 5583 5583 5584 5584 5585 5585 5586 5586 5586 5587 5587 5586 5586 5585 5585 5583 5582 5580 5578 5575 5573 5569 5566 5562 5557 5553 5547 5542 5535 5528 5520 5511 5501 5489 5476 5462
5572 5573 5575 5576 5577 5578 5579 5580 5581 5582 5582 5583 5583 5584 5584 5584 5584 5584 5584 5583 5583 5582 5580 5579 5577 5574 5572 5569 5566 5562 5558 5554 5550 5545 5539 5533 5526 5517 5508 5498 5486 5473 5460 5447
5569 5570 5571 5573 5574 5575 5577 5578 5579 5579 5580 5581 5581 5582 5582 5582 5582 5581 5580 5580 5579 5577 5575 5573 5571 5569 5566 5563 5559 5555 5551 5547 5542 5537 5530 5523 5515 5506 5495 5484 5471 5457 5444 5430
5566 5567 5569 5570 5571 5572 5574 5575 5576 5577 5578 5578 5579 5579 5579 5579 5578 5577 5576 5575 5574 5572 5570 5568 5565 5562 5559 5556 5552 5549 5544 5540 5534 5528 5521 5513 5504 5493 5482 5469 5456 5442 5429 5415
5563 5564 5566 5567 5568 5570 5571 5572 5573 5574 5574 5575 5575 5575 5575 5574 5574 5573 5572 5570 5569 5567 5564 5562 5559 5556 5553 5550 5546 5542 5537 5532 5526 5519 5511 5502 5491 5480 5468 5454 5441 5428 5415 5403
5560 5561 5562 5564 5565 5566 5567 5568 5569 5570 5570 5571 5571 5571 5570 5570 5569 5568 5566 5565 5563 5561 5559 5556 5553 5550 5547 5544 5540 5535 5530 5524 5517 5509 5500 5490 5478 5466 5453 5440 5427 5415 5403 5394
5556 5557 5559 5560 5561 5562 5563 5564 5565 5566 5566 5566 5566 5566 5565 5564 5563 5562 5561 5559 5557 5555 5553 5550 5548 5544 5541 5537 5533 5528 5522 5515 5507 5498 5488 5477 5465 5453 5440 5427 5415 5404 5395 5388
5552 5553 5555 5556 5557 5558 5559 5560 5560 5561 5561 5561 5561 5560 5560 5559 5558 5557 5555 5554 5552 5549 5547 5544 5542 5538 5535 5531 5526 5520 5513 5506 5497 5488 5477 5465 5453 5440 5427 5415 5404 5395 5388 5384
5547 5549 5550 5551 5552 5553 5554 5554 5555 5555 5555 5555 5555 5555 5554 5553 5552 5551 5549 5548 5546 5543 5541 5539 5536 5532 5528 5524 5518 5512 5504 5496 5487 5477 5466 5453 5441 5428 5416 5405 5396 5389 5384 5382
5542 5543 5544 5545 5546 5547 5548 5548 5549 5549 5549 5549 5549 5549 5548 5547 5546 5545 5543 5542 5540 5538 5535 5533 5530 5526 5521 5516 5510 5503 5495 5486 5476 5466 5454 5441 5429 5417 5406 5397 5390 5385 5382 5381
5536 5537 5538 5539 5540 5541 5542 5542 5542 5543 5543 5543 5543 5542 5542 5541 5540 5539 5537 5536 5534 5532 5529 5526 5523 5519 5514 5508 5501 5494 5485 5476 5466 5454 5442 5430 5418 5408 5398 5391 5387 5384 5382 5381
5528 5530 5531 5532 5533 5534 5535 5536 5536 5536 5537 5537 5536 5536 5535 5535 5534 5532 5531 5529 5528 5526 5523 5520 5516 5512 5506 5500 5493 5485 5475 5465 5455 5443 5431 5420 5409 5400 5393 5388 5385 5384 5383 5382
5520 5522 5523 5525 5526 5527 5528 5529 5529 5530 5530 5530 5530 5529 5529 5528 5527 5526 5525 5523 5521 5519 5516 5513 5509 5504 5498 5491 5484 5475 5466 5455 5444 5433 5421 5411 5402 5395 5390 5387 5385 5384 5383 5383